This demonstration page uses our WeatherBlox Daily Observations layout. Learn more.

Left ArrowRight Arrow

38.89511, -77.03637

Hourly Observations for June 28, 2022

Temp ( °F °C ) Dew Point ( °F °C ) Humidity (%) Winds ( mph kmh ) Pressure ( in mb ) Visibility ( mi km ) Precip ( " mm )
12:52 am 00:52 Clear 71 21.7 53 11.7 53 53 NNW 10 17 30.09 1019 10 16 0.00 0.00
1:52 am 01:52 Clear 69 20.6 51 10.6 53 53 NNW 9 15 30.10 1019 10 16 0.00 0.00
2:52 am 02:52 Clear 67 19.4 50 10 55 55 NNW 9 15 30.11 1020 10 16 0.00 0.00
3:52 am 03:52 Clear 66 18.9 48 8.9 52 52 NNW 7 11 30.12 1020 10 16 0.00 0.00
4:52 am 04:52 Mostly Clear 65 18.3 48 8.9 54 54 NNW 8 13 30.14 1021 10 16 0.00 0.00
5:52 am 05:52 Mostly Sunny 65 18.3 46 7.8 51 51 NNW 7 11 30.16 1021 10 16 0.00 0.00
6:52 am 06:52 Mostly Sunny 66 18.9 49 9.4 54 54 NNW 5 7 30.17 1022 10 16 0.00 0.00
7:52 am 07:52 Mostly Sunny 70 21.1 49 9.4 47 47 NNW 8 13 30.20 1023 10 16 0.00 0.00
8:52 am 08:52 Mostly Sunny 73 22.8 50 10 44 44 N 6 9 30.21 1023 10 16 0.00 0.00
9:52 am 09:52 Partly Cloudy 75 23.9 46 7.8 36 36 NNE 13 20 30.21 1023 10 16 0.00 0.00
10:52 am 10:52 Partly Cloudy 77 25 48 8.9 36 36 NNE 12 19 30.21 1023 10 16 0.00 0.00
11:52 am 11:52 Mostly Cloudy 78 25.6 48 8.9 35 35 NNW 12 19 30.22 1023 10 16 0.00 0.00
12:52 pm 12:52 Mostly Cloudy 79 26.1 47 8.3 32 32 VRB 7 11 30.21 1023 10 16 0.00 0.00
1:52 pm 13:52 Mostly Cloudy 79 26.1 49 9.4 35 35 Calm 30.20 1023 10 16 0.00 0.00
2:52 pm 14:52 Mostly Cloudy 81 27.2 51 10.6 35 35 VRB 6 9 30.19 1022 10 16 0.00 0.00
3:52 pm 15:52 Mostly Cloudy 81 27.2 51 10.6 35 35 N 8 13 30.18 1022 10 16 0.00 0.00
4:52 pm 16:52 Mostly Cloudy 81 27.2 51 10.6 35 35 N 10 17 30.17 1022 10 16 0.00 0.00
5:52 pm 17:52 Mostly Cloudy 81 27.2 50 10 34 34 N 9 15 30.17 1022 10 16 0.00 0.00
6:52 pm 18:52 Mostly Cloudy 79 26.1 49 9.4 35 35 NW 9 15 30.18 1022 10 16 0.00 0.00
7:52 pm 19:52 Mostly Cloudy 77 25 49 9.4 37 37 NNW 8 13 30.19 1022 10 16 0.00 0.00
8:52 pm 20:52 Mostly Cloudy 77 25 49 9.4 37 37 Calm 30.19 1022 10 16 0.00 0.00
9:52 pm 21:52 Mostly Cloudy 73 22.8 54 12.2 51 51 ESE 7 11 30.20 1023 10 16 0.00 0.00
10:52 pm 22:52 Partly Cloudy 72 22.2 55 12.8 55 55 SSE 6 9 30.22 1023 10 16 0.00 0.00
11:52 pm 23:52 Partly Cloudy 70 21.1 56 13.3 61 61 Calm 30.22 1024 10 16 0.00 0.00

Powered by AerisWeather